Location: De Greiden
(52.9496°N, 5.9137°E)
Time: 23:35:30
(UTC+00:00)

PSLV R/B - Pass Details

Date: 24 January 2021
Orbit: 567 x 598 km, 98.2° (Epoch: 01 March)

Event Time Altitude Azimuth Distance (km) Brightness Sun altitude
Exits shadow 18:05:34 22° 31° (NNE) 1,331 5.4 -17.6°
Maximum altitude 18:08:07 54° 101° (E) 730 4.0 -18.0°
Drops below altitude 10° 18:12:15 10° 180° (S) 1,934 6.7 -18.6°
Sets 18:14:26 0° 184° (S) 2,830 7.6 -18.9°
